Location: Unspecified
(0.0000°N, 0.0000°E)
Time: 17:31:30
(UTC+00:00)

AO-7 - Pass Details

Date: 09 December 2017
Orbit: 1440 x 1458 km, 101.7° (Epoch: 19 January)

Event Time Altitude Azimuth Distance (km) Brightness Sun altitude
Exits shadow 04:33:11 25° 287° (WNW) 2,601 ? -18.2°
Maximum altitude 04:33:13 25° 287° (WNW) 2,601 ? -18.2°
Drops below altitude 10° 04:39:39 10° 236° (SW) 3,579 ? -16.7°
Sets 04:43:07 0° 223° (SW) 4,558 ? -15.9°
